Simultaneous Nadir Overpasses (SNOs) Predictions

Prediction of SNOs between AQUA and METOP-B Satellite Orbit:

Table of predicted SNOs for the next 14.0 days since TLE Epoch: 2/3/2024
Index Date (AQUA) Time (AQUA) Lat,Lon (AQUA) SZA (AQUA ) Date (METOP-B) Time (METOP-B) Lat,Lon (METOP-B) SZA (METOP-B ) Distance(km) Time Diff (sec)
1 02/04/2024 02:30:47 75.29, 139.07 91.71 02/04/2024 02:30:19 75.31, 139.11 91.73 2.54 28
2 02/04/2024 03:20:10 -75.34, -53.42 88.25 02/04/2024 03:21:00 -75.35, -53.44 88.25 1.24 50
3 02/06/2024 18:42:44 75.30,-103.92 90.92 02/06/2024 18:42:03 75.30,-103.85 90.92 1.85 41
4 02/06/2024 19:32:07 -75.35, 63.60 89.05 02/06/2024 19:32:44 -75.35, 63.61 89.05 0.47 37
5 02/09/2024 10:54:39 75.27, 13.23 90.04 02/09/2024 10:53:47 75.29, 13.16 90.07 2.65 52
6 02/09/2024 11:44:03 -75.37,-179.38 89.87 02/09/2024 11:44:28 -75.34,-179.37 89.90 3.34 25
7 02/12/2024 03:06:33 75.29, 130.23 89.20 02/12/2024 03:05:29 75.31, 130.29 89.22 2.71 64
8 02/12/2024 03:55:56 -75.34, -62.24 90.77 02/12/2024 03:56:10 -75.37, -62.23 90.75 3.20 14
9 02/12/2024 04:45:32 75.94, 103.65 89.87 02/12/2024 04:46:37 75.96, 106.97 89.80 89.68 65
10 02/14/2024 19:18:26 75.27,-112.64 88.27 02/14/2024 19:17:13 75.28,-112.75 88.30 3.27 73
11 02/14/2024 20:07:50 -75.36, 54.77 91.65 02/14/2024 20:07:54 -75.34, 54.74 91.67 2.51 4



Historial Predications of SNOs between AQUA and METOP-B
